Weather History for KCGC - January, 2014

Change the Weather History Date:

Wednesday, January 1, 2014

  Actual Average (KBKV) Record (KBKV)
Temperature  
Mean Temperature 56 °F -  
Max Temperature 60 °F 67 °F 81 °F (2006)
Min Temperature 53 °F 42 °F 21 °F (2001)
Degree Days  
Heating Degree Days 8    
Growing Degree Days 6 (Base 50)    
Moisture  
Dew Point 55 °F    
Average Humidity 92    
Maximum Humidity 100    
Minimum Humidity 77    
Precipitation  
Precipitation 0.13 in - - ()
Sea Level Pressure  
Sea Level Pressure 30.21 in    
Wind  
Wind Speed 6 mph (ENE)    
Max Wind Speed 9 mph    
Max Gust Speed -    
Visibility 9 miles    
Events Rain    
Averages and records for this station are not official NWS values.
T = Trace of Precipitation, MM = Missing Value Source: NWS Daily Summary

Daily Weather History Graph

Daily Weather History Graph

Search for Another Location

Airport or City:

Trip Planner

Search our weather history database for the weather conditions in past years. The results will help you decide how hot, cold, wet, or windy it might be!

Date:

Astronomy

Jan. 01, 2014 Rise Set
Actual Time 7:23 AM EST 5:44 PM EST
Civil Twilight 6:57 AM EST 6:10 PM EST
Nautical Twilight 6:28 AM EST 6:39 PM EST
Astronomical Twilight 5:59 AM EST 7:08 PM EST
Moon 7:18 AM EST (1/1) 6:21 PM EST (1/1)
Length of Visible Light 11h 12m
Length of Day
10h 20m
New Moon, 0% of the Moon is Illuminated
Jan 1
New Moon
Jan 7
First Quarter
Jan 15
Full
Jan 24
Last Quarter
Jan 30
New

Hourly Weather History & Observations

Time (EST) Temp. Dew Point Humidity Pressure Visibility Wind Dir Wind Speed Gust Speed Precip Events Conditions
12:15 AM 55.4 °F 48.2 °F 77% 30.29 in 10.0 mi ENE 5.8 mph - N/A Rain Light Rain
12:35 AM 53.6 °F 50.0 °F 88% 30.28 in 10.0 mi East 3.5 mph - N/A Rain Light Rain
12:55 AM 53.6 °F 50.0 °F 88% 30.27 in 10.0 mi East 4.6 mph - N/A   Clear
1:15 AM 53.6 °F 50.0 °F 88% 30.28 in 10.0 mi NNE 3.5 mph - N/A   Scattered Clouds
1:35 AM 53.6 °F 50.0 °F 88% 30.28 in 10.0 mi NNE 3.5 mph - N/A   Scattered Clouds
1:55 AM 53.6 °F 50.0 °F 88% 30.27 in 10.0 mi ENE 5.8 mph - N/A Rain Light Rain
2:15 AM 53.6 °F 50.0 °F 88% 30.27 in 10.0 mi NE 6.9 mph - N/A   Mostly Cloudy
2:35 AM 53.6 °F 50.0 °F 88% 30.27 in 10.0 mi ENE 4.6 mph - N/A   Overcast
2:55 AM 53.6 °F 50.0 °F 88% 30.27 in 10.0 mi NE 6.9 mph - N/A   Overcast
3:15 AM 53.6 °F 50.0 °F 88% 30.27 in 10.0 mi NE 9.2 mph - N/A Rain Light Rain
3:35 AM 53.6 °F 50.0 °F 88% 30.27 in 10.0 mi NE 8.1 mph - N/A   Overcast
3:55 AM 53.6 °F 50.0 °F 88% 30.27 in 10.0 mi ENE 5.8 mph - N/A   Overcast
4:15 AM 53.6 °F 50.0 °F 88% 30.27 in 10.0 mi ENE 8.1 mph - N/A   Overcast
4:35 AM 53.6 °F 50.0 °F 88% 30.26 in 10.0 mi ENE 8.1 mph - N/A Rain Light Rain
4:55 AM 53.6 °F 50.0 °F 88% 30.26 in 10.0 mi ENE 6.9 mph - N/A   Overcast
5:15 AM 53.6 °F 50.0 °F 88% 30.27 in 10.0 mi ENE 5.8 mph - N/A   Overcast
5:35 AM 53.6 °F 50.0 °F 88% 30.27 in 10.0 mi East 5.8 mph - N/A   Overcast
5:55 AM 53.6 °F 50.0 °F 88% 30.28 in 10.0 mi ESE 3.5 mph - N/A Rain Rain
6:15 AM 53.6 °F 50.0 °F 88% 30.27 in 10.0 mi East 4.6 mph - N/A   Overcast
6:35 AM 53.6 °F 50.0 °F 88% 30.27 in 10.0 mi ENE 5.8 mph - N/A Rain Light Rain
6:55 AM 53.6 °F 50.0 °F 88% 30.27 in 10.0 mi NE 3.5 mph - N/A   Light Drizzle
7:15 AM 53.6 °F 51.8 °F 94% 30.28 in 10.0 mi NNE 4.6 mph - N/A   Overcast
7:35 AM 53.6 °F 51.8 °F 94% 30.28 in 10.0 mi NNE 5.8 mph - N/A   Overcast
7:55 AM 53.6 °F 51.8 °F 94% 30.27 in 10.0 mi NE 8.1 mph - N/A   Overcast
8:15 AM 53.6 °F 51.8 °F 94% 30.27 in 10.0 mi ENE 5.8 mph - N/A   Overcast
8:35 AM 55.4 °F 51.8 °F 88% 30.28 in 10.0 mi NNE 3.5 mph - N/A   Overcast
8:55 AM 55.4 °F 51.8 °F 88% 30.28 in 10.0 mi ENE 5.8 mph - N/A   Overcast
9:15 AM 55.4 °F 51.8 °F 88% 30.28 in 10.0 mi NE 4.6 mph - N/A Rain Light Rain
9:35 AM 55.4 °F 51.8 °F 88% 30.29 in 10.0 mi NE 5.8 mph - N/A   Overcast
9:55 AM 55.4 °F 53.6 °F 94% 30.29 in 10.0 mi NE 5.8 mph - N/A Rain Rain
10:15 AM 55.4 °F 53.6 °F 94% 30.30 in 7.0 mi NNE 3.5 mph - N/A   Drizzle
10:35 AM 55.4 °F 53.6 °F 94% 30.29 in 7.0 mi NNE 4.6 mph - N/A   Overcast
10:55 AM 55.4 °F 55.4 °F 100% 30.29 in 5.0 mi NNE 3.5 mph - N/A Rain Rain
11:15 AM 57.2 °F 55.4 °F 94% 30.28 in 5.0 mi NE 4.6 mph - N/A   Drizzle
11:35 AM 59.0 °F 55.4 °F 88% 30.27 in 7.0 mi NNE 4.6 mph - N/A   Light Drizzle
11:55 AM 59.0 °F 55.4 °F 88% 30.26 in 7.0 mi NE 3.5 mph - N/A Rain Light Rain
12:15 PM 59.0 °F 55.4 °F 88% 30.25 in 7.0 mi ENE 4.6 mph - N/A   Light Drizzle
12:35 PM 59.0 °F 57.2 °F 94% 30.24 in 7.0 mi ENE 5.8 mph - N/A   Light Drizzle
12:55 PM 60.8 °F 57.2 °F 88% 30.22 in 10.0 mi ENE 5.8 mph - N/A   Overcast
1:15 PM 60.8 °F 57.2 °F 88% 30.22 in 10.0 mi NE 4.6 mph - N/A   Overcast
1:35 PM 60.8 °F 57.2 °F 88% 30.19 in 10.0 mi ENE 8.1 mph - N/A   Overcast
1:55 PM 60.8 °F 57.2 °F 88% 30.18 in 10.0 mi ENE 5.8 mph - N/A   Overcast
2:15 PM 60.8 °F 57.2 °F 88% 30.18 in 10.0 mi ENE 6.9 mph - N/A   Overcast
2:35 PM 60.8 °F 57.2 °F 88% 30.17 in 10.0 mi NE 6.9 mph - N/A   Overcast
2:55 PM 60.8 °F 59.0 °F 94% 30.17 in 5.0 mi NE 6.9 mph - N/A   Drizzle
3:15 PM 60.8 °F 59.0 °F 94% 30.17 in 3.0 mi NE 4.6 mph - 0.05 in Rain Rain
3:35 PM 60.8 °F 59.0 °F 94% 30.16 in 4.0 mi NE 5.8 mph - 0.07 in Rain Heavy Rain
3:55 PM 60.8 °F 59.0 °F 94% 30.16 in 5.0 mi ENE 8.1 mph - 0.08 in Rain Rain
4:15 PM 60.8 °F 59.0 °F 94% 30.16 in 5.0 mi ENE 9.2 mph - 0.01 in Rain Rain
4:35 PM 59.0 °F 59.0 °F 100% 30.15 in 7.0 mi ENE 8.1 mph - 0.03 in Rain Rain
4:55 PM 59.0 °F 59.0 °F 100% 30.15 in 10.0 mi ENE 6.9 mph - 0.04 in   Drizzle
5:15 PM 59.0 °F 59.0 °F 100% 30.16 in 10.0 mi ENE 6.9 mph - N/A   Light Drizzle
5:35 PM 59.0 °F 59.0 °F 100% 30.15 in 10.0 mi ENE 4.6 mph - N/A   Overcast
5:55 PM 59.0 °F 59.0 °F 100% 30.15 in 10.0 mi NE 3.5 mph - N/A   Light Drizzle
6:15 PM 59.0 °F 59.0 °F 100% 30.15 in 10.0 mi ENE 8.1 mph - N/A   Drizzle
6:35 PM 59.0 °F 59.0 °F 100% 30.15 in 10.0 mi NE 5.8 mph - N/A   Overcast
6:55 PM 59.0 °F 57.2 °F 94% 30.15 in 10.0 mi ENE 5.8 mph - N/A   Overcast
7:15 PM 59.0 °F 57.2 °F 94% 30.15 in 10.0 mi ENE 6.9 mph - N/A   Overcast
7:35 PM 59.0 °F 57.2 °F 94% 30.14 in 10.0 mi ENE 6.9 mph - 0.01 in Rain Rain
7:55 PM 59.0 °F 59.0 °F 100% 30.14 in 10.0 mi ENE 9.2 mph - 0.01 in   Overcast
8:15 PM 59.0 °F 59.0 °F 100% 30.14 in 10.0 mi ENE 6.9 mph - N/A   Overcast
8:35 PM 59.0 °F 59.0 °F 100% 30.13 in 10.0 mi East 9.2 mph - N/A   Overcast
8:55 PM 59.0 °F 59.0 °F 100% 30.13 in 10.0 mi ENE 9.2 mph - N/A   Overcast
9:15 PM 59.0 °F 59.0 °F 100% 30.12 in 10.0 mi East 8.1 mph - N/A   Overcast
9:35 PM 59.0 °F 59.0 °F 100% 30.12 in 10.0 mi East 8.1 mph - N/A   Overcast
9:55 PM 59.0 °F 59.0 °F 100% 30.11 in 10.0 mi East 8.1 mph - N/A   Overcast
10:15 PM 60.8 °F 59.0 °F 94% 30.11 in 10.0 mi ENE 8.1 mph - N/A   Overcast
10:35 PM 60.8 °F 59.0 °F 94% 30.11 in 10.0 mi East 6.9 mph - N/A   Overcast
10:55 PM 60.8 °F 59.0 °F 94% 30.10 in 10.0 mi ENE 6.9 mph - N/A   Overcast
11:15 PM 60.8 °F 59.0 °F 94% 30.10 in 10.0 mi East 5.8 mph - N/A   Overcast
11:35 PM 60.8 °F 59.0 °F 94% 30.09 in 10.0 mi East 5.8 mph - N/A   Overcast
11:55 PM 60.8 °F 59.0 °F 94% 30.08 in 10.0 mi East 5.8 mph - N/A   Overcast